Вернуться в каталог

STARLINK-36468

АктивенСвязьVLEO
NORAD 67415·PAYLOAD·🇺🇸 United States

Запущен Jan 12, 2026 с Cape Canaveral Space Force Station

Loading…

Ближайшие Пролёты (ближайшие 24 часа)

TLE

СвежийSource: CelesTrak SupGP

Эпоха: Sep 14, 2026, 22:40 UTC

1 67415C 26005M   26257.94493056  .00029700  00000+0  10757-2 0  2574
2 67415  42.9998 249.5088 0001342 262.9741 206.7448 15.27565293    10

Отслеживайте STARLINK-36468 в реальном времени с AllMySat

Download on the App Store